Location: Mesa Vista Observatory
(35.5777°N, 105.6987°W)
Time: 23:16:33
(UTC-06:00)

Hubble Space Telescope - Visible Passes

Search period start: 12 August 2020 00:00
Search period end: 22 August 2020 00:00
Orbit: 536 x 540 km, 28.5° (Epoch: 12 August)

Date Brightness Start Highest point End Pass type
(mag) Time Alt. Az. Time Alt. Az. Time Alt. Az.
12 Aug 2.9 04:14:22 17° SE 04:14:22 17° SE 04:16:02 10° ESE visible
12 Aug 1.9 05:50:07 10° WSW 05:53:44 30° S 05:57:21 10° ESE visible
13 Aug 3.0 04:04:14 16° SE 04:04:14 16° SE 04:05:27 10° ESE visible
13 Aug 1.9 05:39:34 11° WSW 05:42:58 30° S 05:46:35 10° ESE visible
14 Aug 3.3 03:54:08 13° ESE 03:54:08 13° ESE 03:54:49 10° ESE visible
14 Aug 1.8 05:29:28 15° WSW 05:32:12 30° S 05:35:49 10° ESE visible
15 Aug 3.6 03:44:06 10° ESE 03:44:06 10° ESE 03:44:09 10° ESE visible
15 Aug 1.8 05:19:26 19° SW 05:21:26 29° S 05:25:00 10° SE visible
16 Aug 1.9 05:09:27 23° SW 05:10:39 27° S 05:14:10 10° SE visible
17 Aug 1.9 04:59:35 25° SSW 04:59:53 25° S 05:03:17 10° SE visible
18 Aug 2.3 04:49:49 22° S 04:49:49 22° S 04:52:21 10° SE visible
19 Aug 2.8 04:40:10 15° SSE 04:40:10 15° SSE 04:41:22 10° SE visible
